Find Kosmos-2351

NORAD ID: 25327 Int'l Des: 1998-027 Owner: PVO Country: RU operational
MEOELLIPTICALHEO_ELLIPTICALSEMI_SYNCMOLNIYA

Historical Position — 27. Juni 2026

3D-Globus wird geladen...

About Kosmos-2351

Kosmos-2351 (NORAD 25327) is a satellite launched May 7, 1998 by PVO of RU. It operates in MEO, ELLIPTICAL, HEO_ELLIPTICAL, SEMI_SYNC, MOLNIYA orbit with a mass of 1250.00 kg. Last tracked position: Jun 27, 2026.

Höhenverlauf

Loading altitude history...

Zweizeiliger Elementsatz

1 25327U 98027A 26178.73170263 .00000712 00000-0 00000+0 0 9997
2 25327 63.7483 117.8405 7034656 180.1554 179.5965 2.00542477206172
Epoch: 27. Juni 2026 • Age: 413 hours

Aktueller Status

Position data unavailable
Startdatum 7. Mai 1998
Alter 28.1 years
Typ other

Technische Details

Klassifizierung Payload
Masse 1250.00 kg
Trockenmasse 1150.00 kg
Gesamtmasse 1250.00 kg
Länge 4.00 m
Durchmesser 2.00 m
Spannweite 5.00 m
Form Cyl + 2 Pan
Hersteller NPOL/KOMET
Bus-Typ Oko
Phasenstatus In Orbit
Besitzer/Staat PVO/RU

Most Searched